Location: Ch�tillon
(48.8024°N, 2.2935°E)
Time: 21:48:58
(UTC+00:00)

DIWATA 2B (PO-101) - Pass Details

Date: 02 July 2022
Orbit: 583 x 599 km, 98.0° (Epoch: 07 August)

Event Time Altitude Azimuth Distance (km) Brightness Sun altitude
Exits shadow 00:11:09 - 113° (ESE) 2,580 ? -18.1°
Reaches altitude 10° 00:13:19 10° 95° (E) 1,943 ? -18.0°
Maximum altitude 00:15:46 15° 59° (ENE) 1,627 ? -18.0°
Drops below altitude 10° 00:18:13 10° 23° (NNE) 1,951 ? -18.0°
Sets 00:21:09 0° 1° (N) 2,859 ? -17.9°
